Regional Weather Roundup
Issued by NWS

Home | Current Version | Previous Version | Graphics & Text | Print | Product List | Glossary Off
Versions: 1 2 3 4 5 6 7 8 9 10 11 12 13 14 15 16 17 18 19 20 21 22 23 24 25 26 27 28 29 30 31 32 33 34 35 36 37 38 39 40 41 42 43 44 45 46 47 48 49 50

000
ASUS43 KDTX 010510
RWRMI
MICHIGAN HOURLY REGIONAL WEATHER ROUNDUP
NATIONAL WEATHER SERVICE DETROIT/PONTIAC MI
100 AM EDT SUN MAY 01 2016

NOTE: "FAIR" INDICATES FEW OR NO CLOUDS BELOW 12,000 FEET WITH NO
SIGNIFICANT WEATHER AND/OR OBSTRUCTION TO VISIBILITY.

MIZ047>049-052>055-059>063-066>070-074>076-081>083-010600-
SOUTHEAST LOWER MICHIGAN

CITY           SKY/WX    TMP DP  RH WIND       PRES   REMARKS
ADRIAN         LGT RAIN  48  46  93 E12       29.93F
ALMA           RAIN      42  41  97 NE12      30.02F
ANN ARBOR      LGT RAIN  48  47  96 NE7       29.96R FOG
BAD AXE        LGT RAIN  44  41  91 E3        30.06S
CARO           RAIN      43  41  94 NE5       30.03S
DETROIT CITY   RAIN      48  46  93 E10       29.97S FOG
DETROIT        RAIN      50  48  93 N7        29.97R FOG
FLINT          LGT RAIN  47  42  83 NE8       30.02S
GROSSE ILE     RAIN      48  46  93 NE8       29.94R
HILLSDALE      DRIZZLE   47  47 100 E12       29.91F
HOWELL         RAIN      46  45  97 N8        29.97F

CITY           SKY/WX    TMP DP  RH WIND       PRES   REMARKS
JACKSON        LGT RAIN  48  46  93 NE9       29.94F FOG
LAMBERTVILLE   LGT RAIN  50  48  93 NE7       29.94R
LANSING        LGT RAIN  44  43  96 NE10      29.99F
LAPEER         RAIN      44  43  97 NE5       30.01S
MASON          LGT RAIN  46  44  94 NE9       29.97F
MONROE         RAIN      49  48  99 NE3       29.94R
MT. CLEMENS    RAIN      46  46 100 NE12      29.97R FOG
PONTIAC        CLOUDY    47  46  97 NE8       29.97F FOG
PORT HURON     RAIN      45  45 100 NE7       30.00F
TRI CITIES     LGT RAIN  45  41  86 N12       30.05F FOG
MIDLAND        LGT RAIN  42  40  92 N5        30.05F
TROY           RAIN      47  47  97 NE9       29.99F
SAGINAW HB     RAIN      43  41  93 N9        30.03F
$$
MIZ043>046-050>051-056>058-064>065-071>073-077>080-010600-
SOUTHWEST LOWER MICHIGAN

CITY           SKY/WX    TMP DP  RH WIND       PRES   REMARKS
BATTLE CREEK   LGT RAIN  48  46  93 E10       29.93F FOG
BENTON HARBOR  CLOUDY    49  47  93 E9        29.91F
BIG RAPIDS     LGT RAIN  42  37  83 NE8       30.01F
COLDWATER      LGT RAIN  47  47  98 NE9       29.92S
FREMONT        LGT RAIN  43  42  97 E13       30.00S
HOLLAND        CLOUDY    48  47  96 NE7       29.95F
GRAND RAPIDS   CLOUDY    47  45  93 NE12      29.97F
IONIA          DRIZZLE   44  43  97 NE16      29.95F
KALAMAZOO      CLOUDY    48  45  89 NE7       29.92F FOG
LUDINGTON      LGT RAIN  44  42  91 E14G20    30.01F
MARSHALL       DRIZZLE   47  46  95 NE3       29.94S
MOUNT PLEASANT LGT RAIN  41  39  91 NE8       30.03F
MUSKEGON       CLOUDY    46  42  86 NE13      29.97F FOG
SOUTH HAVEN    CLOUDY    48  47  97 E7        29.92S FOG
$$
MIZ016>042-010600-
NORTHERN LOWER MICHIGAN

CITY           SKY/WX    TMP DP  RH WIND       PRES   REMARKS
ALPENA         CLOUDY    46  31  55 N8        30.09F
BEAVER ISLAND  CLOUDY    43  35  74 NE5       30.10F
BELLAIRE       CLOUDY    50  25  38 CALM      30.06F
CADILLAC       CLOUDY    45  32  60 E10       30.03F
CHARLEVOIX     CLOUDY    47  29  50 E7        30.10F
FRANKFORT      CLOUDY    51  34  52 NE5       30.02F
GAYLORD        CLOUDY    47  23  38 NE8       30.06F
GRAYLING       CLOUDY    46  28  49 E3        30.07F
HARBOR SPRINGS CLOUDY    46  26  46 E7        30.09F
HOUGHTON LAKE  CLOUDY    46  32  58 E5        30.06F
MANISTEE       CLOUDY    48  34  57 E9        30.02F
OSCODA         DRIZZLE   46  33  61 NE5       30.07S
PELLSTON       CLOUDY    43  29  57 CALM      30.10F
ROGERS CITY    CLOUDY    41  35  78 CALM      30.11F
TRAVERSE CITY  CLOUDY    49  35  58 CALM      30.05F
$$
MIZ007>008-015-010600-
EASTERN UPPER MICHIGAN

CITY           SKY/WX    TMP DP  RH WIND       PRES   REMARKS
KINROSS          N/A     41  36  81 N8        30.12F
MACKINAC ISLAN CLOUDY    42  34  73 NE8       30.10F
NEWBERRY       CLOUDY    36  34  90 N7        30.11F WCI  31
S. S. MARIE    CLOUDY    41  34  76 N3        30.13F
MUNISING         N/A     38  36  92 NW6       30.14F WCI  33
$$
MIZ004>006-011>014-085-010600-
CENTRAL UPPER MICHIGAN

CITY           SKY/WX    TMP DP  RH WIND       PRES   REMARKS
MANISTIQUE     PTCLDY    38  34  84 N10       30.10F WCI  32
ESCANABA       CLOUDY    43  34  70 N6        30.11F
MENOMINEE      CLOUDY    45  30  57 NE14      30.08S
SAWYER-GWINN   CLOUDY    37  34  86 N13       30.14S WCI  29
$$
MIZ001>003-009>011-084-010600-
WESTERN UPPER MICHIGAN

CITY           SKY/WX    TMP DP  RH WIND       PRES   REMARKS
IRON MOUNTAIN  CLOUDY    40  32  73 N7        30.11F
HOUGHTON       CLOUDY    41  34  76 NE12      30.18F
COPPER HARBOR    N/A     40  36  86 SE5       30.21F
IRONWOOD         N/A     36  34  93 NE3       30.17S
$$

ABBREVIATIONS USED IN REMARKS
   TC - TEMPERATURE IN CELSIUS
  WCI - WIND CHILL INDEX
   HX - HEAT INDEX
  VSB - VISIBILITY




USA.gov is the U.S. government's official web portal to all federal, state and local government web resources and services.